Wetbulb
57.99 57.71 57.84 58.06 58.23 58.34 58.57 58.69 58.89 59.12 59.15 59.21 59.37 59.63 60.01 60.84 60.44 61.48 54.68 61.22 64.13 68.53 68.85 57.09 60.44 59.78 60.50 57.62 64.85 63.59 59.05 57.05 56.90 57.53 58.91 64.00 63.94 66.18 68.36 66.90 67.78 68.86 68.64 70.89 73.45
57.27 57.15 57.28 57.57 57.71 57.95 58.25 58.38 58.74 58.82 59.06 59.03 59.15 59.52 59.81 60.94 61.07 62.26 68.22 69.84 68.05 66.93 54.61 57.26 58.19 59.00 57.09 57.09 61.80 58.33 58.88 56.21 59.00 60.51 60.53 63.19 64.40 65.27 66.03 65.55 66.14 67.69 70.65 72.55 72.88
56.59 56.65 56.81 56.97 57.26 57.40 57.99 58.38 58.48 58.69 58.66 58.74 59.09 59.48 59.88 60.87 62.18 61.45 72.00 68.61 67.31 63.65 55.41 57.62 59.68 57.55 56.23 57.18 60.77 59.19 57.32 59.37 60.61 61.69 62.28 63.40 64.22 67.04 65.52 63.88 66.66 67.21 69.03 71.27 71.98
56.09 56.30 56.47 56.58 56.86 57.08 57.25 57.82 58.03 58.10 58.22 58.21 58.83 59.51 60.55 60.83 53.80 63.36 71.17 68.96 67.27 61.21 60.89 59.31 58.05 56.24 55.67 54.85 56.17 55.80 58.95 60.37 60.57 61.65 61.96 62.51 65.09 64.50 66.39 65.66 67.70 69.96 71.00 71.55 71.32
55.57 55.76 55.88 55.97 56.14 56.30 56.67 56.85 57.60 57.48 57.53 57.95 58.79 59.53 60.57 53.44 56.88 67.05 70.03 67.23 59.42 60.30 59.46 57.96 56.82 56.48 55.20 55.36 56.13 57.37 57.55 58.05 59.44 60.06 61.55 62.97 63.46 63.99 65.24 67.87 70.04 70.59 71.00 71.15 71.41
55.11 55.26 55.28 55.51 55.74 56.09 56.52 56.88 56.98 57.23 57.19 57.90 58.83 59.51 56.30 49.17 60.59 64.51 57.48 57.56 58.42 60.43 58.97 57.68 56.19 57.18 55.79 55.26 54.94 55.23 54.93 55.58 56.96 58.44 59.83 58.85 60.41 63.47 64.77 69.69 69.85 69.95 70.29 70.95 71.22
54.78 54.76 54.88 54.99 55.28 55.60 56.17 56.36 56.34 56.85 57.64 58.43 58.87 60.71 56.23 52.31 61.03 60.70 57.28 57.80 59.29 60.10 58.40 57.84 56.82 56.38 56.72 55.40 55.79 54.59 54.41 56.57 57.00 57.70 58.07 61.05 58.87 60.74 66.46 69.21 69.06 69.12 69.97 70.57 71.50
54.40 54.42 54.52 54.77 54.88 55.14 55.54 55.51 55.73 57.18 59.28 58.91 59.09 60.98 53.89 58.82 61.98 58.37 58.23 60.07 60.75 60.41 59.60 59.77 57.49 56.55 56.08 56.29 53.90 52.37 53.34 52.26 53.71 55.45 56.69 60.06 54.52 60.22 66.74 67.59 67.85 68.53 69.50 70.18 71.26
53.84 54.03 54.17 54.35 54.70 54.88 54.69 54.73 56.48 58.05 60.49 61.12 61.42 59.61 51.68 60.94 58.70 60.53 61.32 60.23 60.07 59.88 58.25 57.69 57.67 54.46 54.93 53.46 53.01 51.98 51.14 49.53 51.60 55.90 54.82 57.09 55.24 57.81 67.09 66.97 66.83 67.95 68.91 69.75 70.70
53.55 53.73 54.00 54.16 54.51 54.46 53.94 55.35 56.99 58.89 59.88 60.96 60.16 52.23 52.79 54.86 58.19 58.09 60.89 60.99 59.29 56.83 55.06 56.20 54.94 54.10 53.45 52.92 49.74 49.53 48.91 49.53 49.84 52.80 54.60 55.24 55.41 59.33 65.85 66.60 66.67 67.48 68.25 68.89 69.35
53.24 53.56 53.95 54.06 54.08 53.71 53.84 54.69 53.98 53.66 53.28 53.51 51.66 49.16 50.88 57.66 58.56 56.76 60.38 60.11 57.28 55.57 51.24 52.11 50.90 48.68 51.38 51.72 50.85 50.34 49.47 48.67 51.23 51.80 53.19 54.06 55.15 54.88 64.30 65.90 66.03 66.88 67.69 68.51 69.17
53.05 53.24 53.50 53.71 53.43 53.43 52.06 51.54 50.31 50.35 49.32 52.01 51.53 52.31 54.85 56.88 53.20 56.09 60.14 56.09 54.73 51.44 51.35 50.47 48.11 50.39 51.33 51.24 50.82 50.59 49.39 49.33 51.40 52.70 53.56 52.90 52.98 54.96 61.03 64.21 65.33 66.43 67.41 68.40 69.01
52.74 53.11 53.24 53.00 52.59 52.16 50.14 51.65 52.55 51.07 48.89 50.29 51.66 51.73 53.04 55.77 53.14 54.18 57.98 55.92 53.25 50.58 50.01 47.92 49.71 51.34 50.80 50.82 50.39 50.23 49.05 48.79 50.75 52.06 51.78 52.89 52.71 52.74 55.51 63.38 66.28 64.39 68.10 69.08 68.15
52.35 52.74 52.55 51.66 50.14 49.25 51.63 52.40 51.39 51.54 45.89 46.24 48.16 51.33 53.68 54.98 52.39 57.17 58.49 56.88 53.74 50.54 50.24 49.86 51.55 51.03 51.14 50.65 51.35 49.88 51.33 49.74 50.92 51.24 48.71 51.32 47.04 54.70 53.59 61.48 64.76 65.76 67.12 67.63 66.92
52.02 51.84 51.79 51.39 48.26 48.69 51.35 51.84 51.43 50.02 37.73 46.41 48.70 53.75 52.75 52.77 53.03 54.22 57.54 56.78 53.04 51.56 51.14 48.81 50.81 50.81 50.01 51.89 52.44 51.18 51.84 52.25 50.54 50.69 49.60 50.90 49.13 52.68 57.88 57.79 59.31 65.50 67.02 67.12 67.45
51.78 51.43 51.14 48.98 48.04 50.33 51.27 50.82 52.30 44.50 37.13 45.50 49.43 48.59 50.07 51.52 51.37 53.60 54.96 57.00 56.32 52.05 51.69 51.29 53.49 52.70 52.45 52.54 51.92 52.58 51.34 50.48 50.54 49.72 46.08 48.87 48.47 51.50 54.43 56.42 58.36 66.08 67.32 67.41 67.31
51.27 50.79 49.62 50.35 47.33 50.39 50.51 52.53 44.23 38.80 45.68 44.95 46.27 48.32 47.92 48.60 49.80 51.34 52.07 51.79 50.09 47.87 47.96 49.91 50.97 54.04 54.94 51.55 52.26 51.73 50.85 46.30 44.13 44.91 44.62 48.70 48.68 53.24 55.36 59.28 60.23 65.77 67.64 67.63 66.31
50.32 49.95 50.66 50.76 50.84 50.30 51.59 48.52 38.90 42.19 42.85 46.61 47.68 47.41 46.04 47.87 49.39 49.33 50.24 49.43 50.68 50.53 48.17 46.39 45.47 52.13 54.67 53.85 51.95 50.29 50.91 46.59 39.93 42.83 46.37 48.51 48.03 52.95 58.44 63.44 65.11 68.14 69.34 68.52 67.74
49.18 49.42 49.58 50.94 51.72 51.37 50.18 42.38 41.98 42.29 46.72 45.99 47.26 45.56 45.67 46.54 47.77 48.95 49.10 48.86 51.19 52.19 48.73 48.14 47.48 53.67 54.18 53.26 53.61 50.03 49.81 50.37 47.20 45.37 46.31 48.35 52.48 56.81 59.96 62.33 65.21 64.46 66.20 67.68 68.05
47.49 50.69 50.43 51.50 52.17 49.92 47.21 40.95 43.27 44.43 47.18 46.40 43.80 45.78 44.72 46.37 45.91 47.14 47.32 49.76 49.37 52.11 54.47 51.49 47.61 51.58 52.54 53.22 52.38 52.65 51.83 48.30 49.18 43.79 41.76 46.43 47.59 50.30 56.24 60.18 64.34 62.50 63.96 63.35 63.46
49.61 49.25 50.81 51.10 48.98 48.96 42.97 42.58 43.01 46.47 46.99 45.43 44.99 44.80 45.78 45.68 45.97 45.47 46.95 48.92 50.62 50.98 53.09 52.81 50.82 50.20 51.90 51.00 50.73 49.76 49.69 48.24 49.83 47.49 45.36 43.60 47.82 56.26 56.69 59.41 62.63 64.34 62.58 62.85 63.31
47.69 46.99 53.39 48.72 46.08 41.34 42.78 42.46 43.62 44.94 46.13 45.14 46.36 46.08 46.02 46.33 46.68 46.04 46.56 48.60 51.17 52.49 49.80 53.10 51.44 48.17 49.49 52.05 51.74 51.35 51.66 52.42 47.95 46.22 47.18 48.08 48.76 54.08 57.20 59.33 63.32 64.40 64.36 64.43 65.13
48.38 49.37 54.01 50.16 41.35 41.84 42.63 42.93 44.28 44.22 44.54 44.49 44.77 47.17 47.91 46.72 45.71 49.29 48.46 51.49 52.13 52.21 52.04 52.58 50.24 45.99 48.21 50.62 51.52 51.13 49.68 49.74 50.68 51.56 48.59 46.49 49.47 54.99 58.36 58.75 61.35 63.01 62.03 62.03 64.28
49.54 46.38 49.22 47.60 44.44 44.52 43.70 43.65 43.20 46.65 45.21 46.77 45.99 47.21 46.59 46.64 49.65 49.34 50.59 52.04 53.74 52.54 58.19 57.06 51.22 50.78 45.54 49.15 51.63 49.98 49.68 49.91 51.85 49.63 48.47 49.63 51.49 56.26 57.19 58.50 59.24 60.63 61.94 62.43 64.20
46.59 45.19 45.20 44.98 45.16 45.95 45.49 44.19 43.05 43.17 46.51 47.38 47.44 46.83 46.93 46.38 48.74 50.22 52.04 53.17 53.85 55.48 52.80 55.51 52.01 50.05 49.94 49.43 50.57 51.21 50.42 49.30 50.58 52.43 50.06 52.04 51.54 55.73 55.91 57.00 59.17 61.23 61.67 62.47 62.55
45.47 45.21 45.69 45.25 44.56 44.44 42.65 44.16 43.16 44.93 45.43 45.30 46.20 48.49 47.68 47.11 50.80 49.86 51.01 52.20 52.51 54.18 51.94 51.87 50.86 51.06 49.24 50.10 51.01 49.90 51.41 51.09 51.33 50.51 51.77 52.19 53.06 57.74 58.33 59.05 60.34 60.57 61.76 61.88 62.45
46.15 46.99 45.09 43.22 44.06 44.60 43.92 43.46 43.90 45.41 48.77 48.21 48.87 50.92 49.74 49.88 53.75 54.05 54.25 51.99 52.99 53.71 54.26 52.12 50.62 49.90 47.28 50.44 50.45 48.27 51.40 52.98 55.13 55.73 54.91 52.31 55.87 58.33 58.42 59.03 60.63 61.04 60.78 61.37 62.52
MSLP
1018.37 1018.19 1017.63 1017.40 1016.93 1016.44 1016.01 1015.51 1015.13 1014.79 1014.27 1013.79 1013.27 1012.62 1011.95 1011.83 1010.80 1010.77 1009.43 1008.30 1008.05 1008.03 1007.95 1007.93 1008.07 1008.18 1008.45 1007.98 1007.91 1007.86 1007.21 1006.75 1006.53 1006.64 1006.44 1006.81 1007.18 1008.03 1008.57 1009.10 1009.69 1010.21 1010.46 1010.75 1011.97
1018.51 1017.94 1017.66 1017.27 1016.85 1016.39 1015.93 1015.48 1015.05 1014.71 1014.25 1013.71 1013.19 1012.69 1011.98 1011.85 1010.90 1009.41 1008.01 1007.93 1007.95 1007.96 1007.69 1007.50 1007.40 1007.37 1007.25 1007.23 1007.31 1006.93 1006.70 1006.67 1006.55 1006.40 1006.11 1006.19 1006.65 1007.60 1008.35 1008.96 1009.67 1010.28 1010.88 1011.41 1012.09
1018.62 1017.89 1017.85 1017.40 1016.89 1016.43 1015.91 1015.30 1014.69 1014.39 1013.93 1013.53 1013.03 1012.59 1011.94 1011.66 1010.57 1008.76 1007.93 1007.85 1007.87 1008.01 1007.83 1007.57 1007.41 1006.92 1006.48 1006.62 1006.77 1006.80 1006.39 1006.56 1006.28 1006.08 1006.10 1006.30 1006.96 1007.26 1007.75 1008.40 1008.72 1009.45 1010.42 1011.33 1012.13
1018.55 1018.47 1018.14 1017.29 1016.95 1016.43 1015.97 1015.24 1014.61 1014.25 1013.99 1013.27 1012.66 1012.22 1011.68 1011.32 1010.03 1008.40 1008.18 1008.03 1007.92 1007.83 1007.84 1007.49 1007.15 1006.69 1006.55 1006.55 1006.70 1006.55 1006.43 1006.38 1005.91 1005.95 1005.99 1006.31 1006.65 1007.04 1007.32 1007.41 1008.20 1009.07 1010.30 1011.09 1011.92
1018.76 1018.47 1017.74 1017.31 1016.77 1016.26 1015.81 1015.13 1014.67 1014.02 1013.63 1013.07 1012.65 1012.23 1011.37 1010.47 1008.92 1008.25 1008.25 1008.17 1007.88 1007.67 1007.58 1007.49 1007.08 1006.85 1006.54 1006.54 1006.53 1006.35 1006.06 1006.01 1005.86 1005.87 1005.84 1006.15 1006.17 1006.46 1006.87 1007.58 1008.31 1009.35 1010.43 1010.77 1011.44
1018.63 1018.15 1017.59 1017.34 1016.81 1016.23 1015.35 1014.87 1014.20 1013.70 1013.27 1012.93 1012.65 1012.19 1011.44 1009.93 1008.24 1008.23 1008.07 1007.99 1007.83 1007.64 1007.45 1007.44 1007.29 1007.03 1006.74 1006.53 1006.35 1006.42 1006.17 1005.74 1005.55 1005.51 1005.73 1005.83 1006.09 1006.61 1006.72 1007.66 1008.66 1009.58 1009.93 1010.56 1011.01
1018.56 1018.04 1017.65 1017.23 1016.66 1015.99 1015.17 1014.52 1013.99 1013.29 1012.93 1012.65 1012.39 1011.99 1010.90 1009.04 1008.26 1008.14 1008.11 1007.84 1007.75 1007.70 1007.46 1007.32 1007.38 1007.07 1006.84 1006.35 1006.58 1006.27 1005.75 1005.31 1005.34 1005.33 1005.33 1005.57 1006.09 1005.95 1006.48 1007.50 1008.42 1009.30 1009.85 1010.61 1011.09
1018.88 1018.20 1017.37 1016.75 1016.29 1015.57 1014.74 1014.16 1013.61 1012.96 1012.42 1012.13 1012.18 1011.63 1009.73 1008.21 1008.15 1008.07 1008.07 1007.77 1007.71 1007.69 1007.71 1007.52 1007.39 1007.16 1007.01 1006.86 1006.72 1006.47 1006.17 1005.61 1005.66 1005.68 1005.39 1005.60 1004.96 1005.29 1006.38 1007.17 1008.05 1008.86 1009.83 1010.64 1011.09
1018.65 1017.99 1017.33 1016.73 1015.81 1015.11 1014.33 1013.69 1013.11 1012.62 1012.33 1012.17 1011.93 1011.09 1009.01 1007.95 1007.93 1007.63 1007.67 1007.61 1007.53 1007.54 1007.57 1007.48 1007.33 1007.55 1007.21 1006.71 1006.57 1006.50 1006.18 1006.08 1005.76 1005.87 1005.63 1005.67 1004.93 1005.82 1006.45 1007.18 1007.81 1008.68 1009.54 1010.29 1010.82
1018.41 1017.93 1017.23 1016.59 1015.79 1014.95 1013.96 1013.01 1012.68 1012.47 1012.27 1012.02 1011.57 1011.08 1008.87 1008.20 1007.76 1007.59 1007.74 1007.64 1007.49 1007.47 1007.50 1007.61 1007.72 1007.57 1007.38 1006.93 1006.53 1006.75 1006.66 1006.57 1006.34 1005.93 1005.75 1005.65 1005.54 1005.82 1006.56 1007.06 1007.55 1008.33 1009.59 1010.05 1010.77
1018.45 1017.85 1017.08 1016.36 1015.53 1014.92 1013.73 1012.66 1013.04 1012.67 1011.83 1011.13 1010.54 1009.97 1008.88 1008.20 1007.81 1007.52 1007.53 1007.55 1007.61 1007.67 1007.81 1008.27 1007.85 1007.30 1007.21 1007.27 1007.29 1007.30 1007.05 1006.94 1006.42 1006.35 1006.03 1005.63 1005.65 1005.85 1006.51 1007.00 1007.45 1008.31 1009.67 1010.22 1011.19
1018.45 1017.77 1016.90 1016.18 1015.38 1014.64 1014.34 1013.70 1014.28 1014.51 1012.56 1010.53 1010.17 1009.69 1008.94 1008.59 1007.98 1007.31 1007.34 1007.45 1007.58 1007.68 1008.05 1008.25 1007.81 1007.71 1007.77 1007.55 1007.43 1007.26 1007.01 1006.87 1006.59 1006.51 1006.10 1005.86 1005.76 1006.22 1006.75 1007.45 1007.96 1008.61 1009.70 1010.36 1011.67
1018.25 1017.53 1016.90 1016.11 1015.15 1014.47 1014.50 1014.25 1014.28 1014.13 1013.10 1010.32 1009.57 1008.87 1008.24 1008.15 1007.57 1007.01 1007.15 1007.26 1007.45 1007.77 1007.90 1007.82 1007.69 1007.76 1007.67 1007.35 1007.14 1006.99 1006.87 1006.77 1006.75 1006.63 1006.71 1006.32 1005.95 1006.49 1007.32 1007.68 1007.93 1008.14 1009.06 1009.64 1010.93
1018.26 1017.55 1016.98 1016.02 1015.28 1015.38 1014.65 1014.23 1014.13 1014.01 1012.58 1010.01 1008.95 1007.92 1007.94 1007.59 1007.17 1006.69 1006.77 1007.01 1007.46 1007.69 1008.02 1007.83 1007.57 1007.44 1007.21 1006.86 1006.82 1006.66 1006.65 1006.77 1006.89 1006.61 1006.87 1007.24 1006.46 1006.33 1007.39 1007.74 1008.01 1008.45 1008.97 1010.16 1011.03
1018.17 1017.56 1017.04 1016.77 1016.10 1015.12 1014.50 1014.09 1013.91 1013.75 1011.48 1009.33 1008.13 1007.66 1007.54 1007.33 1006.86 1006.83 1006.84 1006.90 1007.21 1007.62 1008.11 1007.49 1007.27 1007.14 1006.78 1006.37 1006.46 1006.66 1006.84 1007.13 1007.31 1007.22 1007.43 1007.61 1007.35 1006.88 1007.21 1007.27 1008.01 1008.70 1009.37 1010.45 1010.77
1017.97 1017.48 1017.06 1016.68 1016.25 1014.44 1014.14 1013.81 1013.46 1012.67 1010.44 1008.64 1007.93 1007.52 1007.47 1007.22 1006.72 1006.75 1006.73 1006.81 1007.31 1007.57 1007.76 1007.45 1007.28 1006.90 1006.37 1006.37 1006.45 1006.84 1007.08 1007.55 1007.85 1007.80 1007.63 1008.39 1008.23 1007.13 1007.38 1008.01 1008.50 1009.11 1009.78 1010.25 1010.69
1017.39 1016.89 1016.81 1016.24 1015.16 1014.53 1013.97 1013.15 1012.80 1011.55 1009.99 1008.84 1008.03 1007.53 1007.21 1007.00 1006.78 1006.55 1006.65 1006.89 1007.06 1007.49 1007.35 1007.29 1006.83 1006.38 1006.22 1006.21 1006.63 1006.74 1007.01 1007.35 1007.57 1007.77 1007.89 1008.86 1008.48 1007.37 1007.50 1008.09 1008.69 1009.13 1009.71 1010.62 1011.18
1016.65 1015.98 1015.83 1015.43 1015.04 1014.64 1013.60 1013.17 1012.26 1010.83 1009.90 1009.00 1008.26 1007.73 1007.29 1006.91 1006.69 1006.63 1006.71 1006.85 1007.28 1007.29 1007.25 1006.87 1006.69 1006.21 1005.86 1005.83 1005.97 1006.91 1007.17 1007.27 1007.68 1008.23 1008.32 1008.82 1007.89 1007.25 1007.52 1008.29 1008.78 1009.29 1009.91 1010.75 1010.99
1015.98 1015.63 1015.46 1014.91 1014.80 1014.85 1013.82 1013.06 1011.65 1010.93 1010.11 1009.29 1008.33 1007.79 1007.25 1006.92 1006.70 1006.67 1006.60 1006.57 1006.65 1006.94 1006.82 1006.81 1006.48 1006.02 1005.97 1005.88 1006.31 1007.35 1007.59 1008.06 1008.31 1009.39 1008.50 1008.32 1007.85 1007.18 1007.35 1007.95 1009.19 1009.82 1010.17 1010.39 1010.75
1016.19 1015.41 1015.10 1014.77 1014.62 1014.22 1013.64 1012.81 1012.07 1011.33 1010.47 1009.71 1008.79 1008.21 1007.46 1007.06 1006.85 1006.69 1006.67 1006.19 1006.31 1006.50 1006.43 1006.87 1006.63 1006.22 1006.18 1006.17 1006.83 1006.90 1007.72 1008.01 1008.09 1008.41 1008.13 1008.08 1007.85 1007.19 1007.17 1007.59 1008.97 1009.70 1009.93 1010.45 1011.13
1015.96 1015.20 1015.09 1014.82 1014.59 1014.03 1013.50 1012.96 1012.21 1011.29 1010.87 1010.02 1009.23 1008.53 1007.88 1007.39 1007.11 1006.80 1006.31 1006.13 1005.98 1006.31 1006.63 1006.88 1007.00 1006.67 1006.55 1006.36 1006.40 1007.38 1007.47 1008.04 1008.29 1008.59 1007.85 1007.71 1007.18 1007.10 1007.31 1007.85 1008.25 1009.12 1009.74 1010.55 1011.13
1015.89 1015.14 1014.97 1014.79 1014.58 1014.81 1013.85 1013.38 1012.75 1011.43 1010.74 1010.08 1009.65 1008.96 1008.27 1007.81 1007.29 1007.01 1006.51 1006.15 1006.00 1006.15 1006.52 1006.92 1006.89 1006.69 1006.37 1006.66 1006.91 1006.79 1006.79 1007.07 1007.44 1008.69 1008.55 1007.93 1007.02 1007.08 1007.67 1008.10 1008.50 1008.99 1009.95 1010.81 1011.36
1016.32 1015.59 1014.87 1014.50 1014.37 1014.33 1014.09 1013.41 1012.71 1011.73 1010.92 1010.30 1009.63 1009.12 1008.71 1008.13 1007.83 1007.19 1006.75 1006.37 1006.37 1006.16 1006.09 1006.74 1007.06 1006.93 1006.63 1006.86 1006.97 1006.79 1007.18 1007.39 1007.67 1007.93 1007.87 1007.39 1006.92 1007.17 1007.62 1008.56 1009.09 1009.39 1010.10 1010.72 1011.18
1016.78 1015.76 1015.12 1014.87 1015.08 1014.51 1014.07 1013.43 1012.71 1011.90 1011.28 1010.60 1009.92 1009.34 1008.89 1008.26 1008.07 1007.44 1006.87 1006.63 1006.72 1006.58 1006.38 1006.40 1006.93 1006.63 1006.35 1006.31 1006.41 1006.64 1007.03 1007.31 1007.05 1007.16 1007.48 1007.04 1007.00 1007.13 1007.69 1008.84 1009.27 1009.79 1010.29 1010.74 1011.11
1017.21 1016.79 1016.44 1015.43 1015.15 1014.77 1014.46 1013.83 1012.97 1012.28 1011.56 1010.86 1010.05 1009.49 1009.04 1008.48 1007.97 1007.59 1007.33 1006.98 1007.00 1007.10 1006.92 1006.74 1006.69 1006.98 1006.70 1006.61 1006.48 1006.42 1006.72 1007.11 1007.03 1006.76 1006.59 1006.94 1007.41 1007.83 1009.10 1009.56 1009.78 1010.20 1010.90 1011.01 1011.13
1018.25 1017.64 1016.97 1016.16 1015.56 1014.87 1014.73 1013.98 1013.14 1012.41 1012.04 1010.78 1010.27 1009.50 1009.31 1008.93 1008.03 1007.61 1007.68 1007.58 1007.35 1007.27 1007.27 1007.47 1007.25 1007.08 1006.87 1006.78 1006.65 1006.69 1006.96 1007.10 1007.23 1007.31 1007.27 1007.51 1007.94 1009.09 1009.80 1010.18 1010.53 1010.48 1011.03 1011.19 1011.21
1019.42 1018.82 1017.77 1016.65 1015.67 1014.96 1014.59 1014.25 1013.52 1013.06 1011.64 1011.06 1010.55 1010.19 1009.55 1009.08 1008.75 1008.38 1008.13 1008.11 1008.04 1007.70 1007.62 1007.72 1007.57 1007.50 1007.45 1007.30 1007.05 1007.27 1007.11 1007.17 1007.45 1007.78 1007.65 1007.69 1008.14 1009.35 1009.94 1010.51 1011.16 1011.45 1011.63 1011.55 1011.53
Wind_Speed
17 16 17 16 16 16 17 17 17 17 18 18 17 17 15 16 15 4 3 1 2 4 4 2 7 6 11 6 4 4 3 2 3 6 5 10 11 6 4 8 3 1 2 4 16
17 18 18 18 18 17 16 17 16 16 17 17 17 16 14 14 4 2 2 1 3 5 3 6 1 1 6 6 4 2 0 1 1 2 4 13 14 13 6 8 3 2 7 15 17
17 19 18 18 19 18 18 18 17 17 17 17 17 16 13 8 2 3 3 4 2 4 1 1 2 1 2 1 2 2 1 4 4 5 3 10 7 9 7 7 9 10 17 18 16
17 17 17 18 19 19 20 19 19 18 16 17 18 17 15 2 1 2 2 1 2 1 1 2 1 1 3 2 0 3 2 4 2 3 5 9 10 8 11 3 3 11 17 18 16
17 17 18 19 19 20 20 20 19 18 17 16 17 15 4 2 1 1 3 2 0 2 4 3 3 1 2 2 1 1 2 2 4 4 3 8 13 8 11 3 9 17 17 18 16
18 19 19 19 19 20 20 20 20 19 18 15 13 12 1 3 2 3 3 1 2 3 4 2 3 2 1 1 2 3 6 5 3 3 5 8 6 9 5 12 14 17 19 17 18
20 20 19 19 20 21 21 21 21 20 17 12 7 3 0 8 2 2 2 1 1 1 3 1 3 3 1 1 4 4 6 5 5 3 1 7 5 14 8 14 17 17 15 15 15
18 19 21 21 21 22 22 22 22 18 11 3 2 1 6 1 3 2 2 1 1 2 2 4 1 1 2 1 3 1 1 4 3 2 1 7 10 8 12 17 17 17 14 13 15
19 20 21 22 23 23 23 23 18 6 2 3 1 2 7 5 3 0 3 1 1 1 2 1 3 3 1 1 0 5 2 3 5 5 1 6 9 4 10 12 15 15 14 13 13
20 20 20 22 22 22 25 18 2 2 2 2 0 2 3 1 3 1 1 0 3 2 2 5 4 1 2 3 7 3 1 2 5 3 3 5 10 1 8 11 13 14 12 13 12
21 21 21 22 22 21 13 1 2 2 2 4 1 3 4 7 3 1 2 5 2 4 2 3 3 5 4 2 4 3 2 3 5 3 5 2 5 1 7 10 12 13 11 11 6
21 22 23 23 22 20 3 5 4 2 7 5 7 8 7 1 4 1 6 5 3 4 3 3 5 2 2 4 4 2 1 3 5 5 2 4 1 5 1 3 7 8 10 11 11
22 21 22 22 24 3 4 6 4 5 3 6 5 5 3 10 5 5 9 4 3 4 4 4 3 4 5 3 4 3 4 2 3 3 3 7 2 2 4 5 8 3 13 12 16
21 21 20 26 2 3 2 1 5 6 2 3 3 2 5 5 5 5 8 3 2 6 5 4 1 3 2 4 7 4 7 3 1 2 3 6 4 4 5 7 8 7 10 14 15
21 20 18 10 5 3 2 7 3 4 3 2 2 2 2 7 3 4 2 3 5 5 4 2 5 4 3 3 8 2 3 4 2 3 2 5 3 2 5 4 9 6 11 15 15
21 19 15 2 2 5 7 6 4 2 6 2 0 3 5 4 1 3 4 3 1 4 1 3 2 4 2 2 2 10 5 5 3 0 3 3 4 2 4 5 4 3 11 14 14
21 18 6 1 1 7 7 2 2 4 3 2 2 2 2 6 4 4 11 10 6 5 7 2 4 3 4 3 5 3 3 2 3 3 1 2 4 3 6 6 6 8 10 12 10
24 13 6 4 4 8 1 2 4 2 4 2 2 3 5 9 8 5 8 11 4 3 3 7 7 6 5 4 4 3 3 3 2 2 1 2 2 2 6 6 2 5 6 11 13
18 1 1 2 3 2 2 4 6 5 2 4 4 3 2 3 3 10 11 8 11 10 4 5 5 2 2 2 1 5 4 4 7 1 4 1 3 8 5 1 6 5 8 9 9
3 2 3 6 3 1 2 4 3 3 4 2 2 1 1 0 6 8 9 7 7 13 11 4 3 1 3 3 8 1 8 5 1 5 3 2 4 4 5 4 7 8 9 7 3
1 2 5 2 2 2 4 4 3 5 3 2 1 3 2 2 1 4 4 3 8 9 9 7 2 3 2 4 6 6 4 6 5 3 2 3 3 4 6 6 8 9 10 7 4
2 2 2 2 2 1 2 1 2 3 1 2 2 3 2 2 3 4 7 5 5 11 11 6 3 6 6 1 2 2 5 5 4 5 2 2 2 2 4 7 6 6 6 4 2
2 1 2 3 2 2 0 2 3 2 2 2 3 4 1 1 3 4 4 0 4 10 10 9 3 4 3 3 2 3 3 4 7 3 6 5 2 3 5 3 2 2 3 2 0
1 2 2 3 1 2 2 1 3 3 6 4 4 2 2 3 3 3 2 1 1 6 2 9 5 5 7 2 3 4 5 7 2 5 8 4 1 5 5 2 4 4 1 2 2
3 2 3 2 3 2 2 1 2 4 3 3 3 9 6 3 2 4 2 2 2 1 3 6 8 6 4 4 3 4 10 9 5 7 5 8 6 3 7 4 1 4 6 6 3
3 2 1 2 0 2 2 1 3 3 4 4 6 6 7 7 4 2 2 1 1 1 3 0 5 6 6 4 8 5 7 6 4 6 2 2 4 5 3 1 6 6 5 3 1
2 1 4 2 1 2 2 1 4 2 7 13 9 7 6 7 4 3 1 2 2 2 4 3 6 5 5 3 9 5 7 8 3 2 2 5 0 5 6 4 5 5 1 2 4
Wind_Direction
360 355 359 352 353 348 343 340 337 332 329 327 325 324 327 327 309 189 244 217 182 331 261 264 167 155 181 181 204 174 226 163 156 165 172 170 185 167 125 141 158 239 179 137 142
356 358 354 347 349 345 338 332 329 326 323 324 323 319 323 332 314 311 287 197 226 348 1 31 8 84 175 154 166 245 4 64 324 235 208 194 187 156 165 165 203 177 103 136 150
354 360 348 345 344 340 334 328 328 325 325 322 320 317 321 329 279 15 335 189 332 29 48 341 278 290 91 34 54 123 157 182 215 246 264 192 178 165 162 201 209 202 156 157 164
357 351 342 346 340 336 329 327 323 319 318 323 321 320 320 254 85 355 226 59 347 12 57 323 291 100 104 132 239 251 209 216 190 220 148 175 155 187 200 209 285 177 165 158 173
353 347 348 341 337 331 325 321 314 314 318 323 317 320 325 320 294 257 186 172 273 348 52 18 48 48 148 146 183 286 338 267 277 218 193 159 196 195 216 203 120 144 167 171 177
348 347 345 338 334 324 322 316 314 312 314 314 307 315 319 273 74 181 201 146 45 15 2 27 14 346 94 87 25 329 276 289 236 138 174 200 213 191 194 142 142 165 176 180 185
346 343 339 333 330 324 320 315 313 312 308 300 293 307 360 250 1 208 236 346 105 24 338 351 354 324 291 93 356 347 353 338 50 350 156 155 162 223 172 162 162 183 177 190 196
342 339 336 332 327 324 319 314 313 309 304 299 236 225 262 228 317 180 186 285 237 245 252 326 49 61 336 346 46 51 74 319 28 327 262 229 270 250 176 170 177 182 185 193 204
343 339 335 328 327 323 319 314 307 295 47 112 186 20 275 320 260 241 207 195 328 1 21 355 59 47 153 83 204 37 307 331 324 9 289 239 284 13 178 190 186 188 186 192 209
343 337 332 328 325 323 320 308 265 277 189 215 197 294 258 357 322 27 158 63 71 8 34 31 41 349 104 199 230 182 36 312 282 328 298 223 262 338 188 201 202 197 183 198 206
341 335 330 328 324 326 335 220 302 195 7 241 145 274 284 307 265 195 149 135 123 69 138 31 242 211 176 119 107 136 123 287 273 287 290 310 266 294 192 213 212 205 191 205 201
339 335 331 327 322 320 283 69 80 343 307 249 255 266 263 325 301 221 163 165 166 175 151 180 239 218 174 166 173 164 10 239 286 360 266 357 322 359 264 311 290 235 190 204 112
338 335 330 327 319 334 358 121 336 168 265 290 221 236 215 175 218 231 181 153 149 160 178 197 135 127 218 200 191 171 219 196 286 339 91 327 183 170 55 0 358 222 183 175 156
335 334 332 326 296 349 176 358 318 190 318 255 233 258 166 188 227 196 184 146 140 207 171 244 221 235 225 212 188 222 210 180 215 322 21 342 328 328 25 66 35 64 169 142 150
333 331 332 337 310 237 29 329 138 220 300 65 179 39 120 202 121 179 189 126 181 171 194 173 174 185 283 214 188 101 106 115 91 94 208 33 268 28 339 347 22 93 140 160 166
329 327 327 170 241 277 318 315 206 225 249 25 134 163 153 224 198 112 151 93 120 156 235 268 284 255 244 56 181 142 99 67 78 23 230 36 308 91 329 324 337 172 158 171 178
325 320 288 244 276 327 304 204 161 212 353 50 27 30 212 184 208 160 180 183 182 168 215 217 226 257 202 149 105 121 135 220 211 201 181 142 236 305 267 296 271 211 176 171 176
325 319 197 235 309 340 293 115 189 229 247 337 322 297 217 165 213 163 152 192 192 134 144 202 200 199 165 227 166 156 219 217 208 165 94 183 212 360 266 319 267 156 167 171 193
320 120 181 298 264 211 146 190 206 210 330 320 297 259 228 213 223 196 217 201 201 193 208 168 233 263 228 128 237 150 177 74 108 59 245 8 247 266 278 245 125 126 169 186 206
339 334 22 343 150 171 133 215 234 244 326 271 282 300 293 347 194 195 177 185 193 200 210 170 228 212 90 110 58 237 135 160 118 180 214 154 279 268 277 301 155 160 180 175 193
303 100 2 61 253 63 198 220 265 258 234 281 308 300 293 318 235 204 192 206 212 185 196 158 241 127 200 208 186 150 172 66 97 329 181 178 210 220 259 288 213 178 180 186 204
345 95 34 287 102 49 164 197 318 290 242 278 262 259 261 321 274 232 222 250 178 152 175 186 154 239 257 58 310 297 179 160 195 177 64 313 208 197 264 267 258 182 171 127 15
42 48 75 284 147 139 236 287 264 274 277 324 276 243 225 277 294 230 206 75 173 172 170 172 194 222 180 157 149 221 133 102 102 131 178 199 175 184 261 206 254 244 100 352 70
294 129 77 66 28 54 47 33 284 295 258 251 279 264 284 244 211 299 258 133 24 224 91 155 142 191 215 187 150 165 156 166 156 181 158 212 242 292 328 91 189 193 172 1 209
9 67 2 131 110 72 305 309 265 298 267 259 244 238 240 264 233 228 252 292 93 229 105 192 190 187 219 223 217 183 171 177 211 152 202 163 213 6 35 346 190 119 101 91 100
0 326 81 88 225 128 117 244 261 246 237 247 234 288 231 231 250 247 202 270 290 112 123 140 161 170 206 179 200 174 160 169 180 170 130 153 248 55 27 251 145 140 98 78 22
19 283 285 33 108 178 132 357 293 347 246 248 287 306 245 236 290 331 294 114 5 243 136 145 144 163 183 159 140 140 162 169 148 196 169 199 83 25 62 75 74 102 126 291 306